Regional Weather Roundup
Issued by NWS

Home | Current Version | Previous Version | Text Only | Print | Product List | Glossary Off
Versions: 1 2 3 4 5 6 7 8 9 10 11 12 13 14 15 16 17 18 19 20 21 22 23 24 25 26 27 28 29 30 31 32 33 34 35 36 37 38 39 40 41 42 43 44 45 46 47 48 49 50

000
ASUS43 KLMK 050110
RWRKY
KENTUCKY REGIONAL WEATHER ROUNDUP
NATIONAL WEATHER SERVICE LOUISVILLE KY
900 PM EDT TUE AUG 04 2015

NOTE "FAIR" INDICATES FEW OR NO CLOUDS BELOW 12,000 FEET
WITH NO SIGNIFICANT WEATHER AND/OR OBSTRUCTIONS TO VISIBILITY.

KYZ001>023-026-027-061>063-070>075-050200-
WESTERN AND SOUTH CENTRAL KENTUCKY

CITY           SKY/WX    TMP DP  RH WIND       PRES   REMARKS
PADUCAH        CLOUDY    80  69  69 E7        29.97R
HENDERSON      CLOUDY    70  66  88 S7        29.96S
OWENSBORO      CLOUDY    74  69  84 S3        29.98F
HOPKINSVILLE   CLOUDY    84  74  70 N8        29.99R HX  91
BOWLING GREEN  CLOUDY    80  71  74 NE5       30.01R
GLASGOW        CLOUDY    76  69  79 E3        30.01R
$$

KYZ024-025-028>034-038-045-046-053-050200-
NORTH CENTRAL KENTUCKY

CITY           SKY/WX    TMP DP  RH WIND       PRES   REMARKS
LOUISVILLE/SDF TSTM      71  67  87 W10       30.04R
LOUISVILLE/LOU TSTM      70  67  90 S5        30.05R
FORT KNOX      CLOUDY    68  66  94 NW8       30.02F
$$

KYZ035>037-039>044-047>052-055>060-089>105-050200-
NORTHEAST KENTUCKY

CITY           SKY/WX    TMP DP  RH WIND       PRES   REMARKS
LEXINGTON      TSTM      72  68  87 W13       30.06R
COVINGTON      CLOUDY    72  62  71 W5        30.00R
FRANKFORT      CLOUDY    72  67  84 S12       30.04R THUNDER
$$

KYZ054-064>069-076>088-106>120-050200-
SOUTHEAST KENTUCKY

CITY           SKY/WX    TMP DP  RH WIND       PRES   REMARKS
JACKSON        LGT RAIN  69  67  93 CALM      30.08R FOG
LONDON         CLOUDY    73  65  75 CALM      30.05S
SOMERSET       CLOUDY    70  68  94 NE7       30.08R
MIDDLESBORO    CLOUDY    75  68  78 CALM      30.07R
MONTICELLO     CLOUDY    73  71  93 CALM      30.08R
$$




USA.gov is the U.S. government's official web portal to all federal, state and local government web resources and services.